Погода Иваново

Погода Иваново : погода сейчас, прогноз погоды и архив. Всё, что Вы хотите узнать о погоде Иваново!

Хотите узнать прогноз погоды Иваново? Тогда Вам сюда: Погода Иваново

Поиск расширенной информации на нашем сайте:

Другие новости

Новости СМИ2

Главная страница сайта

Новости сайта

02.10.2013

Напоминаем, что на нашем новом сайте вы можете получить высокодетализированные прогнозы погоды по пунктам России, СНГ и мира (включающие важные для авиации метеовеличины, такие как направление и скорость ветра, видимость, явления погоды, количество и форма облачности, нижняя и верхняя граница облачности), а также ознакомиться с разнообразными материалами по авиационной метеорологии и подборкой полезных ссылок на эту тему.

Сайт Метеоцентр.Азия посвящён разработке технологий оптимизации авиаметеорологического обслуживания, включая проектирование и перспективное создание нескольких автоматизированных авиаметеорологических систем:
- система выпуска высокодетальных прогностических карт явлений погоды для нижнего воздушного пространства по России и ближнему зарубежью;
- система верификации прогнозов TAF (выпускаемых синоптиками официальных АМСГ РФ и ближнего зарубежья) и AUTOTAF (выпускаемых сайтом Метеоцентр.Азия) - выявление ошибок, онлайн-сопоставление с фактической погодой METAR, автоматическое внесение коррективов в прогнозы при резком отклонении фактической погоды от прогноза, подсчёт оправдываемости прогнозов по элементам и в целом;
- система обработки, анализа и отображения авиаметеорологической информации для применения провайдерами метеорологической информации.


Погода Иваново - сегодня

Время (UTC), дата Ветер
(°,м/с) 
Видим.   Явления Облачность Т
(°С)
Тd
(°С)
f(%) Тe
(°С)
Pmin
(гПа)
dP
(гПа)
Po
(мм)
O2
(г/м3)
Тmin Tmax R s Состояние
почвы
00 22.03.17 180 (Ю) 2200 м  дымка{туман}  10/10 100 м 
[St]
+1.9 +1.6 98 +3  1017.5  0.9  751  300           
03 22.03.17 160 (Ю) 2000 м  дымка{туман}  10/10 100 м 
[St]
+1.3 +1 98 1018.3  0.7  752  301  +1.3      равномерный
мокрый или
старый снег
100% 
06 22.03.17 160 (Ю) 3000 м  дымка{туман}  10/10 150 м 
[St]
+1.7 +1.2 96 1018.9  0.7  752  301  +1.2         
09 22.03.17 170 (Ю) 10 км    8/6 600 м средняя 
[Sc|Ac As]
+6.5 +2.6 76 +6  1018.3  -0.4  752  296           
12 22.03.17 200 (Ю) 10 км    8/6 600 м средняя 
[Sc|Ac As]
+7.4 +0.9 63 +7  1018  -0.2  752  295           
15 22.03.17 170 (Ю) 10 км    10/0 средняя 
[Ac und]
+6.6 +1.4 69 +8  1017.2  -0.8  751  295    +8.2       
18 22.03.17 150 (ЮВ) 10 км    8/0 средняя 
[Ac As]
+6.1 +0.1 65 +5  1016.3  -1  751  296           
21 22.03.17 180 (Ю) 10 км    8/0 средняя 
[Ac As]
+4.9 +0.3 72 +5  1016.4  0.1  751  297           
00 23.03.17 190 (Ю) 4000 м  дымка  10/8 300 м средняя 
[Sc|Ac und]
+4.8 +2.2 83 +4  1015.2  -1.2  750  297           
03 23.03.17 340 (С) 2{10}  2000 м  слаб. ливневой дождь  10/10 300 м кучево-дожд. 
[Cb cap]
+0.8 +0 94 1016.7  -1.2  751  302  +0.8    мокрый или
старый снег
50-90% 
06 23.03.17 240 (ЮЗ) 10 км  в посл. час ливневой снег  10/10 180 м кучево-дожд. 
[Cb calv]
+0.4 -0 97 +1  1017.9  1.2  752  302  +0.1         
09 23.03.17 230 (ЮЗ) 10 км    8/8 300 м 
[Sc]
+4.5 +1.8 83 +3  1018.5  0.9  752  298           
12 23.03.17 240 (ЮЗ) 10 км    6/6 600 м 
[Sc]
+6.1 -0.8 61 +5  1018.3  -0.2  752  297           
15 23.03.17 240 (ЮЗ) 10 км    9/5 1000 м средняя 
[Sc|Ac trans]
+5.7 -2.3 56 +7  1018.7  0.4  752  297    +8.2     
18 23.03.17 290 (З) 2{17}  4200 м  слаб. ливневой дождь  9/6 400 м кучево-дожд., средняя 
[Cb calv|Ac trans]
+1.3 -0.4 88 +1  1020.9  1.8  754  302           
21 23.03.17 230 (ЮЗ) 10 км  {ливн. осадки}  6/0 верхняя 
[Ci fib]
-0.2 -0.9 95 -1  1021.5  0.6  754  304           
00 24.03.17 240 (ЮЗ) 10 км  {ливн. осадки}  3/0 верхняя 
[Ci fib]
-1.6 -2.7 92 -1  1021.8  0.1  754  306           
03 24.03.17 200 (Ю) 10 км    8/0 верхняя 
[Ci fib]
-2 -2.9 94 -3  1022.1  0.3  755  307  -2.3    0.6  мокрый или
старый снег
50-90% 
06 24.03.17 200 (Ю) 10 км    10/0 верхняя 
[Ci fib]
+1.5 -1.9 78 +1  1020.8  -1.1  754  302           
09 24.03.17 200 (Ю) 10 км    10/0 верхняя 
[Ci fib]
+5.7 -2.8 54 +4  1018.1  -2.4  752  297           
12 24.03.17 230 (ЮЗ) 5{10}  10 км    10/0 средняя 
[As op]
+5.5 -2.9 55 +3  1015.6  -2.4  750  297           
15 24.03.17 250 (З) 4000 м  слаб. ливневой дождь  10/10 330 м кучево-дожд. 
[Cb calv]
+2.6 +0.6 87 +3  1013.8  -2  749  299    +6.2  0.3     
18 24.03.17 270 (З) 1800 м  ливневой снег  10/10 210 м кучево-дожд. 
[Cb calv]
+0.2 -0.3 96 +1  1013  -0.9  748  301           
21 24.03.17 320 (СЗ) 10 км  в посл. час ливневой снег  6/6 600 м 
[Sc]
-0.6 -1.5 94 1011.5  -1.5  747  302           
00 25.03.17 310 (СЗ) 10 км  {ливн. осадки}  8/8 720 м 
[Sc]
-2.1 -4.1 86 -4  1010.9  -1.5  746  303           
Время (UTC), дата Ветер
(°,м/с) 
Видим.   Явления Облачность Т
(°С)
Тd
(°С)
f(%) Тe
(°С)
Pmin
(гПа)
dP
(гПа)
Po
(мм)
O2
(г/м3)
Тmin Tmax R s Состояние
почвы

Для получения пояснительной информации подведите курсор к названию столбца.

ПОГОДА Иваново - архив

Всё, что Вы хотите узнать о погоде Иваново - удобно и подробно!

Выберите нужную дату (начиная с 1 января 2015* года) и нажмите кнопку "Найти".
Будут отображены архивные сводки погоды по пункту Иваново, начиная с указанной даты.


Отображать данные в формате CSV (для использования в таблицах Excel)


Внимание! Наш архив погоды предназначен исключительно для личного некоммерческого использования в познавательных целях. Если Вам необходимы официальные справки о состоянии погоды (для производственных, юридических, коммерческих и т.п. целей), обращайтесь в органы Росгидромета.

*Примечание: данная дата относится к архиву по метеостанциям СССР (Россия, СНГ, Балтия).
Архив по метеостанциям Зарубежной Европы и Азии (кроме Китая) хранится 10 дней, по другим регионам земного шара (Китай, Африка, Америка, Австралия, Океания) - 1 день.

Иваново - район местоположения метеостанции


Название, широта, долгота, высота метеостанции:
Иваново (Южный) 56.9°ш. 40.1°д. 126 м над ур. моря [Российская Федерация]

Дополнительная информация

В oтличие oт бoльшинства пoгoдных сайтoв мы публикуем пoдрoбную метеoинфoрмацию в детальнoм прoфессиoнальнoм фoрмате.

Характеристики температуры и влажнoсти вoздуха измеряются на высoте 2 м в тени вдали oт зданий и деревьев.
Скoрoсть ветра измеряется на высoте 10 м (на урoвне рoста челoвека скoрoсть ветра ниже в 1.5-2 раза). Если метеoстанция нахoдится в гoрoде или в лесу, тo скoрoсть ветра занижена на 2-4 м/с пo сравнению с oткрытым местoм. Скoрoсть ветра над акватoриями крупных рек и oзёр, а также на вершинах хoлмoв на 2-5 м/с выше, чем в oбычных услoвиях.
Атмoсфернoе давление в разных тoчках местнoсти мoжет значительнo oтличаться oт давления на метеoстанции, в зависимoсти oт услoвий рельефа (при пoдъёме на 10 м давление пoнижается примернo на 1 мм рт.ст.).